Location: Unspecified
(43.8044°N, 11.0278°E)
Time: 19:22:50
(UTC+02:00)

Cosmos 2058 - Visible Passes

Search period start: 21 October 2017 00:00
Search period end: 30 October 2017 23:00
Orbit: 564 x 584 km, 82.5° (Epoch: 21 October)

Date Brightness Start Highest point End Pass type
(mag) Time Alt. Az. Time Alt. Az. Time Alt. Az.
21 Oct 3.8 19:26:20 10° NNW 19:30:24 52° W 19:34:26 10° S visible
22 Oct 4.5 19:29:44 10° NNW 19:33:38 39° W 19:37:29 10° SSW visible
23 Oct 5.1 19:33:13 10° NNW 19:36:52 30° W 19:40:28 10° SSW visible
24 Oct 6.6 06:24:29 10° E 06:25:41 11° E 06:26:53 10° ENE visible
24 Oct 5.6 19:36:47 10° NW 19:40:04 23° W 19:43:19 10° SW visible
25 Oct 6.3 06:26:30 10° ESE 06:28:50 15° E 06:31:11 10° NE visible
25 Oct 6.1 19:40:28 10° NW 19:43:15 17° W 19:45:59 10° SW visible
26 Oct 6.0 06:29:02 10° SE 06:32:01 19° E 06:35:01 10° NE visible
26 Oct 6.3 19:44:23 10° NW 19:46:24 13° W 19:48:24 10° WSW visible
27 Oct 5.5 06:31:46 10° SE 06:35:12 25° E 06:38:39 10° NE visible
28 Oct 5.0 06:34:39 10° SSE 06:38:24 32° E 06:42:10 10° NNE visible
29 Oct 4.3 05:37:39 10° SSE 05:41:38 42° E 05:45:37 10° NNE visible
30 Oct 3.7 05:40:45 10° S 05:44:52 57° E 05:49:01 10° NNE visible
